{"data":{"norad_id":37763,"intl_designator":"2011-038A","name":"BEIDOU-2 IGSO-4 (C09)","alt_names":[],"object_type":"PAYLOAD","status":"ACTIVE","operator":null,"country":"PRC","launch_date":"2011-07-26","launch_site_code":"XICLF","launch_vehicle":null,"mission":null,"orbit_class":"UNKNOWN","rcs_meters":16.2984,"size_class":null,"mass_kg":null,"dimensions":null,"purposes":["comms","nav"],"wikipedia_slug":null,"has_3d_model":false,"image_url":null,"decayed_at":null,"tle_current":{"epoch":"2026-09-19T16:05:35.266848Z","epoch_age_seconds":86184,"freshness":"FRESH","line1":"1 37763U 11038A   26262.67054707 -.00000111  00000+0  00000+0 0  9995","line2":"2 37763  54.6028 164.8329 0160394 230.8500 298.4616  1.00267304 55590","mean_motion":1.00267304,"eccentricity":0.0160394,"inclination_deg":54.6028,"raan_deg":164.8329,"arg_perigee_deg":230.85,"mean_anomaly_deg":298.4616,"bstar":0,"rev_number":5559,"period_min":1436.1610839761,"perigee_km":35111.534043885,"apogee_km":36464.168345992,"semimajor_km":42165.988194939,"source":"CELESTRAK","updated_at":"2026-09-20T09:00:46.671440Z"}}}